Weather History for Wilmington, NC

Change the Weather History Date:

Thursday, May 16, 2013

  Actual Average Record
Temperature  
Mean Temperature 79 °F 70 °F  
Max Temperature 91 °F 81 °F 94 °F (1915)
Min Temperature 66 °F 60 °F 43 °F (1887)
Degree Days  
Heating Degree Days 0 1  
Month to date heating degree days 27 22  
Since 1 July heating degree days 2440 2404  
Cooling Degree Days 14 6  
Month to date cooling degree days 55 77  
Year to date cooling degree days 117 165  
Growing Degree Days 28 (Base 50)    
Moisture  
Dew Point 61 °F    
Average Humidity 58    
Maximum Humidity 81    
Minimum Humidity 34    
Precipitation  
Precipitation 0.00 in 0.15 in 2.04 in (1916)
Month to date precipitation 0.55 2.06  
Year to date precipitation 15.96 16.47  
Sea Level Pressure  
Sea Level Pressure 29.98 in    
Wind  
Wind Speed 10 mph (SW)    
Max Wind Speed 17 mph    
Max Gust Speed 23 mph    
Visibility 10 miles    
Events      
T = Trace of Precipitation, MM = Missing Value Source: NWS Daily Summary

Daily Weather History Graph

Daily Weather History Graph

Search for Another Location

Airport:

Trip Planner

Search our weather history database for the weather conditions in past years. The results will help you decide how hot, cold, wet, or windy it might be!

Date:

Astronomy

May. 16, 2013 Rise Set
Actual Time 6:08 AM EDT 8:07 PM EDT
Civil Twilight 5:40 AM EDT 8:35 PM EDT
Nautical Twilight 5:07 AM EDT 9:09 PM EDT
Astronomical Twilight 4:30 AM EDT 9:45 PM EDT
Moon 11:35 AM EDT (5/16) 12:31 AM EDT (5/16)
Length of Visible Light 14h 54m
Length of Day
13h 58m
Waxing Crescent, 35% of the Moon is Illuminated
May 16
Waxing Crescent
May 18
First Quarter
May 25
Full
May 31
Last Quarter
Jun 8
New

Hourly Weather History & Observations

Time (EDT) Temp. Heat Index Dew Point Humidity Pressure Visibility Wind Dir Wind Speed Gust Speed Precip Events Conditions
12:53 AM 69.1 °F - 59.0 °F 70% 29.98 in 10.0 mi SW 10.4 mph - N/A   Clear
1:53 AM 69.1 °F - 59.0 °F 70% 29.98 in 10.0 mi SW 10.4 mph - N/A   Clear
2:53 AM 68.0 °F - 60.1 °F 76% 29.96 in 10.0 mi SW 13.8 mph - N/A   Clear
3:53 AM 66.9 °F - 60.1 °F 79% 29.96 in 10.0 mi WSW 10.4 mph - N/A   Clear
4:53 AM 66.0 °F - 59.0 °F 78% 29.95 in 10.0 mi SW 11.5 mph - N/A   Clear
5:53 AM 66.0 °F - 60.1 °F 81% 29.95 in 10.0 mi SW 9.2 mph - N/A   Clear
6:53 AM 68.0 °F - 59.0 °F 73% 29.96 in 10.0 mi SW 13.8 mph 21.9 mph N/A   Clear
7:53 AM 71.1 °F - 60.1 °F 68% 29.98 in 10.0 mi WSW 11.5 mph 20.7 mph N/A   Clear
8:53 AM 73.9 °F - 60.1 °F 62% 29.99 in 10.0 mi WSW 11.5 mph - N/A   Clear
9:53 AM 77.0 °F - 60.1 °F 56% 30.00 in 10.0 mi West 8.1 mph - N/A   Clear
10:53 AM 80.1 °F 81.2 °F 62.1 °F 54% 30.01 in 10.0 mi West 6.9 mph - N/A   Clear
11:53 AM 84.0 °F 84.9 °F 63.0 °F 49% 30.00 in 10.0 mi SW 6.9 mph - N/A   Clear
12:53 PM 86.0 °F 86.3 °F 62.1 °F 44% 29.99 in 10.0 mi WSW 8.1 mph - N/A   Clear
1:53 PM 89.1 °F 88.2 °F 59.0 °F 36% 29.98 in 10.0 mi WSW 10.4 mph - N/A   Clear
2:53 PM 90.0 °F 88.6 °F 57.0 °F 33% 29.96 in 10.0 mi WSW 13.8 mph 21.9 mph N/A   Clear
3:53 PM 88.0 °F 86.9 °F 57.9 °F 36% 29.95 in 10.0 mi West 15.0 mph - N/A   Clear
4:53 PM 82.9 °F 84.0 °F 63.0 °F 51% 29.95 in 10.0 mi SSW 12.7 mph - N/A   Clear
5:53 PM 81.0 °F 82.5 °F 64.0 °F 56% 29.95 in 10.0 mi SW 8.1 mph - N/A   Clear
6:53 PM 79.0 °F - 64.9 °F 62% 29.95 in 10.0 mi SSW 6.9 mph - N/A   Clear
7:53 PM 77.0 °F - 64.0 °F 64% 29.96 in 10.0 mi SSW 5.8 mph - N/A   Clear
8:53 PM 73.9 °F - 64.0 °F 71% 29.99 in 10.0 mi SW 6.9 mph - N/A   Clear
9:53 PM 73.9 °F - 64.0 °F 71% 30.01 in 10.0 mi WSW 11.5 mph - N/A   Clear
10:53 PM 75.0 °F - 64.0 °F 69% 30.01 in 10.0 mi WSW 9.2 mph - N/A   Partly Cloudy
11:53 PM 73.9 °F - 64.9 °F 73% 30.02 in 10.0 mi SW 10.4 mph - N/A   Clear